Wind_Speed
10 9 9 9 10 10 10 10 10 9 9 9 9 9 9 8 8 8 8 8 7 6 5 4 3 2 1 1 0 1 1 2 3 3 4 5 6 7 7 8 9 9 10
8 8 8 8 8 9 9 9 9 9 9 9 9 9 8 8 8 8 8 8 7 6 5 4 4 3 3 1 1 1 2 2 3 4 5 6 7 8 8 8 9 10 11
8 7 7 7 7 8 8 8 8 8 8 8 8 8 8 8 8 7 7 7 7 7 5 4 3 2 2 2 2 2 3 3 4 5 6 7 8 9 9 10 10 11 12
8 7 6 6 7 7 7 8 7 7 8 8 8 7 8 8 7 6 6 7 7 6 6 4 3 3 3 3 3 4 4 5 5 6 7 8 8 9 10 10 11 12 12
7 6 6 6 7 7 7 7 7 7 7 7 7 7 7 7 7 7 6 6 6 6 6 5 4 3 3 3 4 5 6 6 7 7 8 9 10 10 11 11 12 12 13
6 5 5 5 6 6 6 6 6 7 7 7 7 6 6 6 7 7 7 6 5 5 6 5 5 4 4 4 5 6 7 7 8 8 9 9 10 11 11 12 12 12 13
5 5 5 5 5 5 5 5 6 6 6 6 6 6 5 5 5 6 7 7 6 6 6 6 6 6 6 6 7 7 8 8 9 9 10 11 11 11 11 12 12 13 13
6 5 5 5 5 4 4 5 5 6 6 6 6 6 5 5 5 5 5 6 6 6 7 7 7 7 7 7 8 9 9 10 11 11 11 12 12 12 12 13 13 13 14
6 6 6 6 5 5 4 5 5 5 6 6 5 5 6 5 5 5 5 6 6 6 7 7 7 8 8 9 9 10 10 11 12 12 12 12 13 13 13 14 14 14 14
8 7 7 6 6 5 5 5 4 5 5 6 6 5 6 5 5 6 6 6 7 7 8 8 9 9 9 10 10 11 11 12 12 13 13 13 13 13 13 14 14 15 15
9 8 8 7 7 6 6 6 5 5 6 6 6 6 6 6 6 6 6 7 8 8 9 9 10 10 10 11 11 11 12 12 13 13 13 13 13 14 14 14 15 16 16
10 9 9 8 8 7 7 7 6 5 6 7 7 7 7 7 7 7 8 8 9 9 9 10 10 11 11 11 11 12 13 13 14 14 14 14 14 14 15 15 15 16 17
12 11 10 9 9 8 8 7 7 7 7 8 8 8 8 8 8 8 9 9 9 10 10 11 11 12 12 12 12 13 14 14 14 15 15 15 15 15 15 16 17 17 17
13 12 12 11 10 10 9 9 9 9 9 8 8 9 9 9 9 9 10 10 10 11 11 12 12 13 13 13 13 14 15 15 15 15 15 15 16 16 16 16 17 16 17
14 14 13 13 12 11 11 10 11 10 10 10 10 10 10 10 10 10 11 11 11 11 12 12 13 14 14 14 15 15 15 15 16 16 16 16 16 17 17 17 17 17 17
16 15 14 14 13 13 12 12 12 12 12 12 12 11 11 11 11 12 12 12 13 13 14 14 15 15 16 16 17 17 16 17 17 17 17 17 17 18 18 17 17 17 18
18 17 16 15 15 14 14 14 14 14 13 13 13 13 12 13 13 13 13 13 14 14 15 15 16 17 17 18 18 18 18 19 19 19 19 19 19 19 19 19 19 19 19
20 20 19 18 17 17 16 15 15 14 14 14 14 14 14 14 14 14 14 15 15 15 16 16 17 18 18 19 20 20 20 20 21 21 20 21 21 21 20 20 20 20 20
21 21 21 21 20 19 18 16 16 16 16 16 16 16 15 15 15 15 16 16 16 17 17 18 19 19 19 20 21 21 22 22 23 22 22 22 22 22 21 21 21 21 21
23 23 23 22 22 21 20 19 18 18 17 17 17 18 18 17 17 17 17 18 18 18 19 19 20 20 21 21 22 23 23 23 24 24 23 22 22 22 22 22 22 22 23
25 24 24 23 23 23 22 22 21 20 20 20 19 19 19 19 19 20 19 19 20 20 21 21 21 22 22 23 24 24 24 24 25 25 25 24 24 24 24 24 24 23 24
28 27 26 26 26 25 24 24 24 22 22 21 20 20 20 20 21 21 21 21 22 22 22 23 23 23 24 24 25 25 26 26 26 26 26 26 26 26 26 25 24 24 25
29 29 29 28 28 27 27 26 25 23 22 22 22 22 22 23 23 23 24 23 23 23 24 24 24 25 25 26 26 26 26 26 26 26 25 26 26 27 26 25 26 26 26
31 31 31 30 30 30 28 27 26 25 25 25 26 25 25 25 25 25 25 25 24 25 25 26 26 26 26 26 27 27 27 27 27 26 26 26 26 26 27 27 27 27 27
32 33 32 32 31 31 30 30 29 28 28 28 28 27 26 26 26 27 27 26 26 27 27 27 27 28 28 28 28 28 28 28 28 27 28 28 27 27 28 28 28 28 28
32 33 32 32 32 32 32 32 32 31 30 29 29 27 27 27 28 28 28 27 28 28 28 28 29 29 30 30 30 30 29 29 28 29 29 28 28 28 28 28 28 29 29
Wind_Direction
37 38 40 45 48 50 52 54 54 54 56 58 55 53 52 54 56 58 58 58 63 76 80 88 88 86 90 85 17 314 316 301 286 288 286 284 282 281 280 278 278 279 280
30 35 38 42 43 43 48 51 52 51 52 53 53 52 50 52 52 54 56 55 59 67 71 74 74 71 75 76 37 355 315 300 299 297 296 295 292 288 287 286 283 283 283
20 26 32 38 40 38 40 45 47 47 49 50 50 47 45 50 55 54 53 53 56 58 64 73 71 64 66 56 19 357 336 318 311 305 302 299 297 289 288 291 289 286 283
10 15 22 30 37 36 35 39 41 38 40 43 44 41 42 48 49 50 51 51 51 48 49 55 63 64 50 30 11 356 346 336 328 319 311 305 300 295 293 293 294 292 289
360 6 13 21 28 30 31 36 38 36 36 37 37 40 45 44 41 43 49 48 45 41 38 39 39 37 25 12 360 351 345 336 328 320 314 308 302 297 295 294 295 296 293
346 357 5 13 19 21 23 31 35 32 31 30 30 35 39 39 37 36 36 35 33 25 24 24 16 10 2 353 346 341 339 335 329 324 319 314 307 300 295 294 294 297 297
325 339 350 358 5 9 15 23 28 28 27 25 25 27 31 31 32 32 30 28 24 18 14 9 359 349 341 337 335 335 332 331 327 322 318 313 308 304 299 298 297 296 296
315 322 332 340 347 354 3 11 18 21 21 19 19 19 21 24 25 24 21 16 12 9 5 357 347 339 333 328 325 326 328 326 324 319 314 313 310 305 301 298 297 296 297
303 306 312 324 333 336 341 354 3 10 11 10 10 7 9 12 12 9 8 8 3 357 354 351 345 337 331 327 323 322 323 323 322 320 316 311 309 307 303 298 297 297 297
290 295 299 305 313 318 322 333 346 353 356 356 354 352 355 356 358 357 356 356 353 349 346 344 342 337 330 327 325 323 323 324 324 321 317 314 311 308 305 300 300 299 298
285 287 292 294 295 298 305 315 324 334 342 344 342 339 337 339 343 343 343 343 342 342 341 340 341 337 331 328 328 327 326 325 325 323 319 317 314 312 309 305 303 303 301
277 280 284 288 287 288 292 300 303 312 321 329 331 330 327 327 329 333 334 332 334 337 338 337 339 337 334 330 327 326 325 324 323 323 321 319 316 314 313 310 307 306 304
269 272 274 278 278 282 284 291 293 298 302 310 315 317 318 318 319 322 327 326 328 330 332 332 333 334 332 329 327 326 325 324 322 321 320 319 318 315 314 313 311 308 305
261 264 265 268 272 276 279 283 285 288 293 298 300 305 308 311 313 315 319 320 320 323 326 326 327 326 326 325 324 325 324 323 322 321 320 318 317 316 315 315 315 313 310
256 261 265 265 268 270 272 274 276 280 285 288 290 293 297 302 311 312 311 313 314 316 319 321 322 322 322 321 321 322 322 323 323 322 320 319 318 317 315 314 313 313 312
252 257 264 264 263 267 270 270 274 280 284 283 283 286 289 296 304 311 312 311 311 312 315 316 317 317 318 318 317 317 317 318 319 320 319 319 318 317 316 315 314 312 312
249 252 256 258 259 262 268 271 276 276 277 278 282 283 286 290 295 301 306 310 312 312 314 316 316 316 315 316 316 314 313 314 315 316 315 316 316 316 315 314 313 313 313
250 250 251 252 254 258 262 270 274 277 276 276 280 281 285 290 293 298 302 305 307 310 313 314 314 313 313 314 314 312 311 311 311 312 313 314 315 315 312 311 311 312 313
246 248 249 251 253 257 260 266 271 274 276 278 280 282 281 284 288 294 298 301 303 305 308 311 313 314 313 313 312 309 307 307 307 307 308 310 312 312 311 310 311 310 310
244 247 250 253 255 256 258 263 266 272 275 277 278 281 281 281 286 290 293 296 297 300 305 307 309 311 311 311 310 308 307 306 306 305 306 309 310 310 310 308 308 308 308
243 246 249 252 255 258 259 260 261 266 268 272 275 278 278 281 284 286 289 292 294 297 302 304 306 307 308 308 308 307 306 306 307 305 304 306 307 307 308 306 306 306 306
241 245 248 252 255 256 259 262 258 261 264 268 271 275 276 279 282 284 285 288 292 295 300 302 303 304 306 306 307 307 307 306 306 306 304 303 303 304 305 307 308 307 306
241 244 246 249 253 255 258 260 262 263 265 267 269 273 276 279 280 283 285 287 291 294 297 299 301 303 304 304 305 306 306 305 305 306 304 303 302 303 304 305 308 309 309
242 243 245 248 252 253 256 259 264 263 264 266 266 270 275 278 280 284 288 286 289 293 295 296 298 300 302 303 304 305 305 305 304 303 304 303 302 302 303 304 307 308 307
243 244 246 248 252 254 255 258 261 262 263 265 266 266 271 276 281 285 287 288 289 291 292 294 296 298 300 302 303 304 303 303 303 303 302 302 302 302 302 303 305 306 306
246 247 248 250 252 254 256 258 259 261 262 263 264 266 270 275 279 283 286 287 288 289 290 292 293 296 299 301 301 301 302 301 301 300 300 301 302 302 302 303 304 305 306
Height
5919 5917 5916 5914 5913 5911 5910 5909 5907 5906 5904 5903 5902 5901 5900 5899 5898 5898 5897 5896 5895 5895 5895 5895 5895 5895 5895 5895 5895 5895 5895 5895 5895 5894 5894 5893 5893 5892 5892 5891 5891 5890 5890
5920 5919 5917 5916 5915 5913 5912 5910 5909 5907 5906 5905 5904 5903 5902 5901 5900 5899 5898 5897 5896 5896 5895 5895 5896 5895 5895 5895 5895 5895 5895 5894 5894 5893 5893 5892 5892 5890 5890 5889 5888 5888 5887
5921 5920 5919 5917 5916 5914 5913 5912 5910 5909 5908 5906 5905 5904 5903 5902 5901 5900 5899 5898 5897 5897 5896 5896 5896 5895 5895 5895 5894 5894 5894 5893 5892 5892 5891 5891 5890 5888 5888 5887 5886 5885 5884
5923 5921 5920 5918 5917 5916 5914 5913 5912 5910 5909 5908 5907 5905 5904 5903 5902 5901 5900 5899 5899 5898 5897 5896 5896 5895 5895 5895 5894 5893 5892 5892 5891 5890 5889 5889 5887 5886 5886 5885 5884 5883 5882
5923 5922 5921 5919 5918 5917 5915 5914 5912 5911 5910 5909 5908 5907 5906 5905 5904 5902 5901 5900 5899 5899 5898 5897 5896 5896 5895 5894 5894 5893 5892 5891 5890 5889 5887 5886 5885 5884 5883 5882 5881 5880 5879
5923 5922 5921 5920 5919 5917 5916 5915 5913 5912 5911 5910 5909 5908 5906 5905 5904 5903 5902 5901 5900 5899 5898 5897 5896 5896 5895 5894 5893 5892 5891 5889 5888 5887 5886 5884 5883 5882 5881 5879 5878 5877 5876
5923 5922 5921 5920 5919 5918 5917 5916 5914 5913 5912 5911 5909 5908 5907 5906 5905 5904 5902 5901 5900 5899 5898 5897 5896 5895 5894 5893 5892 5891 5890 5888 5887 5885 5884 5882 5881 5879 5878 5877 5875 5874 5873
5923 5922 5921 5920 5919 5918 5917 5916 5915 5914 5912 5911 5910 5909 5907 5906 5905 5904 5903 5902 5900 5899 5898 5897 5896 5895 5893 5892 5891 5890 5888 5887 5885 5883 5882 5880 5878 5877 5875 5874 5873 5871 5870
5922 5921 5920 5919 5919 5918 5917 5916 5915 5914 5913 5911 5910 5909 5908 5906 5905 5904 5903 5902 5900 5899 5898 5896 5895 5893 5892 5890 5889 5888 5886 5885 5883 5881 5879 5877 5876 5874 5872 5871 5870 5869 5867
5920 5920 5919 5919 5918 5917 5916 5916 5915 5914 5913 5911 5910 5909 5908 5906 5905 5904 5903 5901 5900 5899 5897 5895 5894 5892 5890 5889 5887 5885 5884 5882 5880 5878 5877 5875 5873 5871 5869 5868 5866 5865 5863
5919 5918 5918 5917 5917 5916 5915 5915 5914 5913 5912 5911 5910 5909 5907 5906 5904 5903 5902 5901 5899 5898 5896 5894 5892 5891 5889 5887 5885 5883 5882 5880 5878 5876 5874 5872 5870 5868 5866 5865 5863 5861 5860
5916 5916 5916 5915 5915 5914 5914 5913 5913 5912 5911 5910 5909 5908 5907 5905 5904 5902 5901 5900 5898 5897 5895 5893 5891 5889 5887 5885 5883 5881 5879 5877 5875 5873 5871 5869 5867 5865 5864 5862 5860 5858 5856
5914 5914 5913 5913 5913 5912 5912 5911 5911 5910 5909 5908 5907 5906 5905 5904 5903 5901 5900 5898 5897 5895 5893 5891 5889 5887 5885 5883 5881 5879 5877 5875 5873 5870 5868 5866 5864 5862 5860 5858 5856 5854 5851
5911 5911 5911 5911 5910 5910 5910 5909 5909 5908 5907 5906 5906 5905 5904 5902 5901 5900 5898 5897 5895 5893 5891 5889 5887 5885 5883 5881 5879 5877 5874 5872 5870 5868 5865 5863 5861 5859 5856 5854 5852 5849 5847
5907 5907 5907 5908 5908 5907 5907 5907 5906 5905 5905 5904 5903 5902 5902 5901 5899 5898 5896 5894 5892 5891 5889 5887 5885 5883 5881 5879 5876 5874 5872 5869 5867 5865 5862 5860 5857 5855 5853 5850 5848 5845 5843
5902 5903 5904 5904 5904 5904 5904 5903 5903 5903 5902 5901 5901 5900 5899 5898 5897 5895 5893 5892 5890 5888 5886 5884 5882 5880 5878 5876 5873 5871 5869 5866 5864 5861 5859 5856 5854 5851 5849 5846 5844 5841 5839
5897 5898 5899 5900 5900 5901 5901 5900 5900 5899 5898 5898 5897 5896 5896 5895 5894 5892 5891 5889 5887 5885 5883 5881 5879 5876 5874 5872 5870 5868 5865 5863 5860 5858 5855 5853 5850 5847 5845 5842 5840 5837 5835
5893 5894 5894 5895 5895 5896 5896 5896 5896 5895 5894 5894 5894 5893 5892 5892 5890 5889 5887 5886 5884 5882 5880 5878 5875 5873 5871 5868 5866 5864 5861 5859 5856 5853 5851 5848 5846 5843 5840 5838 5835 5833 5830
5887 5888 5889 5890 5890 5891 5891 5891 5891 5891 5890 5890 5889 5889 5888 5888 5887 5885 5884 5882 5880 5879 5876 5874 5872 5869 5867 5864 5862 5859 5857 5854 5851 5849 5846 5844 5841 5838 5835 5833 5831 5828 5826
5880 5882 5883 5884 5885 5885 5885 5886 5886 5886 5885 5885 5885 5884 5884 5883 5882 5881 5879 5878 5876 5875 5872 5870 5867 5865 5862 5860 5857 5854 5852 5849 5846 5844 5841 5839 5836 5834 5831 5828 5826 5823 5820
5874 5875 5877 5878 5878 5879 5879 5880 5880 5880 5880 5879 5879 5879 5878 5878 5877 5876 5875 5873 5872 5870 5867 5865 5862 5860 5857 5855 5852 5849 5846 5843 5841 5838 5835 5833 5831 5828 5825 5823 5820 5817 5814
5867 5868 5870 5871 5871 5872 5873 5873 5873 5873 5873 5873 5873 5873 5873 5872 5871 5870 5869 5868 5866 5864 5862 5860 5857 5854 5852 5849 5846 5843 5841 5838 5835 5832 5830 5827 5825 5822 5820 5817 5814 5811 5808
5859 5861 5862 5864 5865 5865 5866 5867 5867 5866 5866 5867 5867 5867 5867 5866 5865 5864 5863 5861 5860 5858 5856 5854 5851 5849 5846 5843 5840 5837 5834 5831 5829 5826 5823 5821 5818 5816 5813 5811 5808 5805 5802
5851 5853 5854 5856 5857 5857 5859 5860 5860 5860 5860 5860 5860 5861 5861 5860 5859 5857 5856 5854 5853 5851 5849 5847 5845 5842 5840 5837 5834 5831 5828 5825 5822 5819 5817 5814 5812 5809 5807 5804 5801 5798 5795
5842 5844 5846 5848 5849 5850 5851 5852 5853 5853 5853 5853 5853 5853 5853 5852 5851 5851 5849 5848 5846 5844 5842 5840 5838 5835 5833 5830 5827 5824 5822 5818 5815 5812 5810 5807 5805 5802 5799 5797 5794 5791 5788
5834 5836 5837 5839 5840 5841 5842 5843 5844 5844 5844 5844 5844 5844 5845 5844 5844 5843 5842 5840 5838 5837 5835 5833 5831 5828 5826 5823 5820 5817 5814 5811 5808 5806 5803 5800 5798 5795 5792 5789 5786 5783 5780